Breathe — BRAVO — position and weather

sailwx.info

Track history (hours):
 
Tides and Currents Weather Stations Pressure Air Temp Water Temp Dewpoint Dewpoint Depression Visibility Wind Speed Wind Dir Waves Ship Positions

Breathe

Last reported at 2018-Jun-22 01:06 UTC. Time now 2018-Jun-22 01:30 UTC.
Position N 33°43' W 118°17'.

Length 16 m.

Type: Sailing vessel. MMSI: 338208221.

Date/timePositionNaut miles runAvg speedWind from/ knotsBaromVisibWave heightAir tempDewpointWater temp
2018-Jun-22 01:06N 33°43' W 118°17'0 0.0
2018-Jun-22 00:57N 33°43' W 118°17'0 0.0
2018-Jun-22 00:24N 33°43' W 118°17'0 0.0
2018-Jun-22 00:00N 33°43' W 118°17'0 0.0
2018-Jun-21 22:36N 33°43' W 118°17'0 0.0
2018-Jun-21 22:30N 33°43' W 118°17'0 0.0
2018-Jun-21 21:57N 33°43' W 118°17'0 0.0
2018-Jun-21 20:06N 33°43' W 118°17'0 0.0
2018-Jun-21 20:00N 33°43' W 118°17'0 0.0
2018-Jun-21 03:33N 33°43' W 118°17'0 0.0
2018-Jun-21 03:03N 33°43' W 118°17'0 0.0
2018-Jun-21 02:48N 33°43' W 118°17'0 0.0
2018-Jun-21 01:18N 33°43' W 118°17'0 0.0
2018-Jun-21 00:42N 33°43' W 118°17'0 0.0
2018-Jun-21 00:30N 33°43' W 118°17'0 0.0
2018-Jun-20 23:42N 33°43' W 118°17'  
2018-Jun-18 01:54N 33°43' W 118°17'1 1.7
2018-Jun-18 01:29N 33°43' W 118°16'2 3.4
2018-Jun-18 01:00N 33°45' W 118°16'2 3.1
2018-Jun-18 00:30N 33°43' W 118°16'1 0.0
2018-Jun-15 20:51N 33°43' W 118°17'0 0.0
2018-Jun-15 20:30N 33°43' W 118°17'0 0.0
2018-Jun-15 19:24N 33°43' W 118°17'0 0.0
2018-Jun-15 19:00N 33°43' W 118°17'0 0.0
2018-Jun-15 18:15N 33°43' W 118°17'1 4.7
2018-Jun-15 17:59N 33°43' W 118°16'3 6.8
2018-Jun-15 17:29N 33°40' W 118°18'19 1.2
2018-Jun-15 01:53N 33°21' W 118°20'0 0.0
2018-Jun-15 01:23N 33°21' W 118°20'0 0.0
2018-Jun-15 00:11N 33°21' W 118°20'0 0.0
2018-Jun-14 23:59N 33°21' W 118°20'0 0.0
2018-Jun-14 03:53N 33°21' W 118°20'0 0.0
2018-Jun-12 22:29N 33°21' W 118°20'0 0.0
2018-Jun-12 05:17N 33°21' W 118°20'0 0.0
2018-Jun-12 04:47N 33°21' W 118°20'0 0.0
2018-Jun-12 03:08N 33°21' W 118°20'  
Track history (hours):
 
Tides and Currents Weather Stations Pressure Air Temp Water Temp Dewpoint Dewpoint Depression Visibility Wind Speed Wind Dir Waves Ship Positions

Breathe

Last reported at 2018-Jun-22 01:06 UTC. Time now 2018-Jun-22 01:30 UTC.
Position N 33°43' W 118°17'.

Length 16 m.

Type: Sailing vessel. MMSI: 338208221.

Date/timePositionNaut miles runAvg speedWind from/ knotsBaromVisibWave heightAir tempDewpointWater temp
2018-Jun-22 01:06N 33°43' W 118°17'0 0.0
2018-Jun-22 00:57N 33°43' W 118°17'0 0.0
2018-Jun-22 00:24N 33°43' W 118°17'0 0.0
2018-Jun-22 00:00N 33°43' W 118°17'0 0.0
2018-Jun-21 22:36N 33°43' W 118°17'0 0.0
2018-Jun-21 22:30N 33°43' W 118°17'0 0.0
2018-Jun-21 21:57N 33°43' W 118°17'0 0.0
2018-Jun-21 20:06N 33°43' W 118°17'0 0.0
2018-Jun-21 20:00N 33°43' W 118°17'0 0.0
2018-Jun-21 03:33N 33°43' W 118°17'0 0.0
2018-Jun-21 03:03N 33°43' W 118°17'0 0.0
2018-Jun-21 02:48N 33°43' W 118°17'0 0.0
2018-Jun-21 01:18N 33°43' W 118°17'0 0.0
2018-Jun-21 00:42N 33°43' W 118°17'0 0.0
2018-Jun-21 00:30N 33°43' W 118°17'0 0.0
2018-Jun-20 23:42N 33°43' W 118°17'  
2018-Jun-18 01:54N 33°43' W 118°17'1 1.7
2018-Jun-18 01:29N 33°43' W 118°16'2 3.4
2018-Jun-18 01:00N 33°45' W 118°16'2 3.1
2018-Jun-18 00:30N 33°43' W 118°16'1 0.0
2018-Jun-15 20:51N 33°43' W 118°17'0 0.0
2018-Jun-15 20:30N 33°43' W 118°17'0 0.0
2018-Jun-15 19:24N 33°43' W 118°17'0 0.0
2018-Jun-15 19:00N 33°43' W 118°17'0 0.0
2018-Jun-15 18:15N 33°43' W 118°17'1 4.7
2018-Jun-15 17:59N 33°43' W 118°16'3 6.8
2018-Jun-15 17:29N 33°40' W 118°18'19 1.2
2018-Jun-15 01:53N 33°21' W 118°20'0 0.0
2018-Jun-15 01:23N 33°21' W 118°20'0 0.0
2018-Jun-15 00:11N 33°21' W 118°20'0 0.0
2018-Jun-14 23:59N 33°21' W 118°20'0 0.0
2018-Jun-14 03:53N 33°21' W 118°20'0 0.0
2018-Jun-12 22:29N 33°21' W 118°20'0 0.0
2018-Jun-12 05:17N 33°21' W 118°20'0 0.0
2018-Jun-12 04:47N 33°21' W 118°20'0 0.0
2018-Jun-12 03:08N 33°21' W 118°20'  

Dump ship's entire track history